Powrót do katalogu

STARLINK-31483

AktywnyŁącznośćVLEO
NORAD 59411·PAYLOAD·🇺🇸 United States

Wystrzelony Apr 5, 2024 z Cape Canaveral Space Force Station

Loading…

Następne Przeloty (najbliższe 24 godziny)

TLE

ŚwieżeSource: CelesTrak SupGP

Epoka: Sep 14, 2026, 22:32 UTC

1 59411C 24064P   26257.93937500  .00059427  00000+0  21526-2 0  2575
2 59411  43.0018  67.5112 0001281 274.1531 231.0114 15.27547202    13

Śledź STARLINK-31483 w czasie rzeczywistym z AllMySat

Download on the App Store